This demonstration page uses our WeatherBlox Daily Observations layout. Learn more.

Left ArrowRight Arrow

38.88101, -77.10428

Hourly Observations for June 18, 2021

Temp ( °F °C ) Dew Point ( °F °C ) Humidity (%) Winds ( mph kmh ) Pressure ( in mb ) Visibility ( mi km ) Precip ( " mm )
12:52 am 00:52 Clear 66 18.9 48 8.9 52 52 SSW 5 7 30.07 1018 10 16 N/A
1:52 am 01:52 Clear 64 17.8 48 8.9 56 56 S 7 11 30.07 1018 10 16 N/A
2:52 am 02:52 Clear 63 17.2 47 8.3 56 56 S 7 11 30.07 1018 10 16 N/A
3:52 am 03:52 Clear 63 17.2 47 8.3 56 56 S 6 9 30.07 1018 10 16 N/A
4:52 am 04:52 Mostly Clear 62 16.7 48 8.9 60 60 SSW 5 7 30.07 1018 10 16 N/A
5:52 am 05:52 Mostly Sunny 61 16.1 50 10 67 67 SW 5 7 30.09 1019 10 16 N/A
6:52 am 06:52 Mostly Sunny 64 17.8 56 13.3 75 75 SSW 6 9 30.09 1019 10 16 N/A
7:52 am 07:52 Mostly Sunny 67 19.4 54 12.2 63 63 S 6 9 30.08 1019 10 16 N/A
8:52 am 08:52 Sunny 72 22.2 49 9.4 44 44 SSW 12 19 30.07 1018 10 16 N/A
9:52 am 09:52 Sunny 76 24.4 49 9.4 39 39 SSW 15 24 30.07 1018 10 16 N/A
10:52 am 10:52 Mostly Sunny 77 25 54 12.2 45 45 SSW 12 19 30.05 1018 10 16 N/A
11:52 am 11:52 Mostly Sunny 80 26.7 54 12.2 41 41 S 15 24 30.05 1018 10 16 N/A
12:52 pm 12:52 Mostly Sunny 81 27.2 57 13.9 44 44 S 13 20 30.04 1017 10 16 N/A
1:52 pm 13:52 Partly Cloudy 82 27.8 58 14.4 44 44 SSW 10 17 30.02 1017 10 16 N/A
2:52 pm 14:52 Mostly Cloudy 84 28.9 58 14.4 41 41 S 6 9 30.00 1016 10 16 N/A
3:52 pm 15:52 Cloudy 85 29.4 57 13.9 39 39 S 14 22 29.98 1015 10 16 N/A
4:52 pm 16:52 Cloudy 84 28.9 55 12.8 37 37 SSW 9 15 29.94 1014 10 16 N/A
5:52 pm 17:52 Mostly Cloudy 84 28.9 58 14.4 41 41 S 10 17 29.91 1013 10 16 N/A
6:52 pm 18:52 Mostly Cloudy 81 27.2 63 17.2 54 54 S 9 15 29.89 1012 10 16 N/A
7:52 pm 19:52 Cloudy 80 26.7 65 18.3 60 60 S 10 17 29.89 1012 10 16 N/A
8:52 pm 20:52 Mostly Cloudy 78 25.6 65 18.3 64 64 S 8 13 29.90 1013 10 16 N/A
9:52 pm 21:52 Mostly Cloudy 78 25.6 66 18.9 67 67 S 8 13 29.90 1013 10 16 N/A
10:52 pm 22:52 Mostly Cloudy 78 25.6 64 17.8 62 62 S 12 19 29.88 1012 10 16 N/A
11:52 pm 23:52 Cloudy 79 26.1 60 15.6 52 52 SSW 10 17 29.91 1013 10 16 N/A

Powered by AerisWeather